Tracking 33485 objects as of 15-Mar-2026
HD Live streaming from Space Station
objects crossing your sky now

STARLINK-36663

Track STARLINK-36663 now!
10-day predictions
STARLINK-36663 is classified as:


NORAD ID: 67919
Int'l Code: 2026-036R
Perigee: 365.5 km
Apogee: 367.5 km
Inclination: 43.0 °
Period: 91.7 minutes
Semi major axis: 6737 km
RCS: Unknown
Launch date: February 22, 2026
Source: United States (US)
Launch site: AIR FORCE EASTERN TEST RANGE (AFETR)
Your satellite tracking list
Your tracking list is empty




NASA's NSSDC Master Catalog

Two Line Element Set (TLE):
1 67919U 26036R   26074.25001157 -.01932452  00000-0 -17732-1 0  9998
2 67919  42.9998 215.7421 0001540 265.4029 350.4410 15.69839877  4548
Source of the keplerian elements: AFSPC